This demonstration page uses our WeatherBlox Daily Observations layout. Learn more.

Left ArrowRight Arrow

39.08367, -84.50855

Hourly Observations for January 5, 2021

Temp ( °F °C ) Dew Point ( °F °C ) Humidity (%) Winds ( mph kmh ) Pressure ( in mb ) Visibility ( mi km ) Precip ( " mm )
12:02 am 00:02 Mostly Clear with Freezing Fog 30 -1.1 29 -1.7 96 96 Calm 29.96 1015 0.5 0.80467 0 0
12:24 am 00:24 Cloudy with Mist and Fog 31 -0.6 30 -1.1 96 96 Calm 29.96 1015 2 3.21868 0 0
12:31 am 00:31 Cloudy 30 -1.1 29 -1.7 96 96 Calm 29.96 1015 7 11.26538 0 0
12:53 am 00:53 Cloudy 32 0 30 -1.1 92 92 Calm 29.94 1014 8 12.87472 0 0
1:53 am 01:53 Cloudy 33 0.6 31 -0.6 92 92 Calm 29.93 1014 9 14.48406 0 0
2:53 am 02:53 Cloudy 33 0.6 31 -0.6 92 92 Calm 29.94 1014 9 14.48406 0 0
3:53 am 03:53 Cloudy 33 0.6 31 -0.6 92 92 Calm 29.93 1014 9 14.48406 0 0
4:53 am 04:53 Cloudy 33 0.6 30 -1.1 89 89 Calm 29.94 1014 10 16.0934 0 0
5:53 am 05:53 Cloudy 34 1.1 31 -0.6 89 89 Calm 29.95 1014 10 16.0934 0 0
6:53 am 06:53 Cloudy with Light Rain 34 1.1 32 0 92 92 Calm 29.97 1015 9 14.48406 0.001 0.001
7:31 am 07:31 Cloudy with Light Rain 35 1.7 32 0 89 89 VRB 6 9 30 1016 8 12.87472 0.01 0.254
7:53 am 07:53 Cloudy 38 3.3 34 1.1 86 86 WNW 8 13 30 1016 7 11.26538 0.01 0.254
8:53 am 08:53 Cloudy with Light Rain 37 2.8 33 0.6 86 86 WNW 7 11 30.04 1017 9 14.48406 0.001 0.001
9:53 am 09:53 Cloudy with Mist and Fog 35 1.7 32 0 89 89 W 9 15 30.07 1018 6 9.65604 0.001 0.001
10:53 am 10:53 Cloudy 34 1.1 30 -1.1 85 85 NNW 7 11 30.09 1019 9 14.48406 0 0
11:53 am 11:53 Cloudy 34 1.1 30 -1.1 85 85 WNW 10 17 30.1 1019 8 12.87472 0 0
12:53 pm 12:53 Cloudy 34 1.1 30 -1.1 85 85 NW 9 15 30.09 1019 7 11.26538 0 0
1:53 pm 13:53 Cloudy 34 1.1 28 -2.2 79 79 NW 8 13 30.1 1019 10 16.0934 0 0
2:53 pm 14:53 Cloudy 34 1.1 29 -1.7 82 82 W 10 17 30.12 1020 10 16.0934 0 0
3:53 pm 15:53 Cloudy 35 1.7 29 -1.7 78 78 W 6 9 30.15 1021 10 16.0934 0 0
4:53 pm 16:53 Cloudy 36 2.2 29 -1.7 76 76 W 8 13 30.17 1022 10 16.0934 0 0
5:53 pm 17:53 Cloudy 37 2.8 29 -1.7 73 73 WNW 8 13 30.19 1022 10 16.0934 0 0
6:53 pm 18:53 Cloudy 36 2.2 29 -1.7 76 76 NW 8 13 30.21 1023 10 16.0934 0.001 0.001
7:53 pm 19:53 Cloudy with Light Rain 36 2.2 30 -1.1 79 79 Calm 30.22 1024 10 16.0934 0.001 0.001
8:53 pm 20:53 Cloudy 36 2.2 29 -1.7 76 76 Calm 30.23 1024 10 16.0934 0.001 0.001
9:53 pm 21:53 Cloudy 36 2.2 29 -1.7 76 76 W 6 9 30.24 1024 10 16.0934 0 0
10:53 pm 22:53 Cloudy 36 2.2 28 -2.2 73 73 WNW 7 11 30.24 1024 10 16.0934 0 0
11:53 pm 23:53 Cloudy 36 2.2 28 -2.2 73 73 W 6 9 30.26 1025 10 16.0934 0 0

Powered by AerisWeather